Погода в Хохряках

Россия / Удмуртская Республика     56°54′57″N   53°19′21″E
темп.,
°C
ветер,
м/с
пор.,
м/с
влажн.,
%
обл.,
%
осадки,
мм/ч
давл.,
гПа
погр.,
м
12 мая, ср
ср1201:00+15св22755 0.0 102839
04:00+13св26861 0.0 1029121
07:00+16всв35735 0.0 1029265
10:00+22всв23529 0.0 1029755
13:00+26вюв22395 0.0 10281745
16:00+26ю113110 0.0 10272595
19:00+24юв014134 0.0 102716
22:00+20вюв12545 0.0 102760
13 мая, чт
чт1301:00+17в11664 0.0 102711
04:00+15ссв00670 0.0 102811
07:00+19ююв12510 0.0 1028138
10:00+24ю34330 0.0 1028992
13:00+26ю442466 0.0 10272149
16:00+27ю45233 0.0 10262201
19:00+23ю253866 0.0 1025474
22:00+19ююв2251100 0.0 102539
14 мая, пт
пт1401:00+18ююв125686 0.0 102518
04:00+16ююв22615 0.0 102538
07:00+19ю385040 0.0 1025297
10:00+24ю473610 0.1 1024801
13:00+27ююз592942 0.0 10231810
16:00+28юз5928100 0.0 10222244
19:00+24ююз4938100 0.0 1021619
22:00+20ююз395396 0.0 1022205
15 мая, сб
сб1501:00+18ююз31063100 0.1 1021219
04:00+16ююз25665 0.1 102198
07:00+19ююз31053100 0.0 1021323
10:00+25ююз583547 0.0 1020826
13:00+28юз6927100 0.0 10201451
16:00+29юз61027100 0.0 10191671
19:00+25юз493960 0.0 1019635
22:00+20юз310565 0.0 1019252
16 мая, вс
вс1601:00+17юз27555 0.0 1019126
04:00+16юз23590 0.0 102054
07:00+20ююз25490 0.0 1020207
10:00+26ююз463473 0.0 1019724
13:00+29ююз6829100 0.0 10182694
16:00+29юз682513 0.0 10172879
19:00+26юз3838100 0.0 1017631
22:00+21юз39566 0.0 1017218